• In Belarus
  • List of Countries
  • For 7 days
  • Water Temperature
  • Satellite Maps
  • Weather Map
  • Weather Widgets
  • user-avatar
    Login

    Hourly Weather Enapaevo

    Today, 22 February, Friday

    Time Temperature Precipitation Wind Pressure Humidity
    00:00 -6°C° 0.1 mm 5 mps 739 mmHg 90%
    01:00 -6°C° 0.1 mm 5 mps 739 mmHg 91%
    02:00 -6°C° 0.1 mm 5 mps 739 mmHg 91%
    03:00 -6°C° 0.1 mm 5 mps 739 mmHg 91%
    04:00 -4°C° 0.1 mm 4 mps 739 mmHg 91%
    05:00 -4°C° 0.1 mm 4 mps 739 mmHg 91%
    06:00 -4°C° 0.1 mm 4 mps 739 mmHg 91%
    07:00 -4°C° 0.1 mm 4 mps 739 mmHg 92%
    08:00 -4°C° 0.1 mm 4 mps 739 mmHg 91%
    09:00 -4°C° 0.1 mm 4 mps 739 mmHg 91%
    10:00 -3°C° 0.1 mm 4 mps 739 mmHg 91%
    11:00 -3°C° 0.2 mm 4 mps 739 mmHg 91%
    12:00 -2°C° 0.2 mm 4 mps 739 mmHg 90%
    13:00 -2°C° 0.2 mm 4 mps 739 mmHg 90%
    14:00 -2°C° 0.3 mm 4 mps 739 mmHg 90%
    15:00 -2°C° 0.3 mm 4 mps 739 mmHg 91%
    16:00 -1°C° 0.3 mm 3 mps 739 mmHg 91%
    17:00 -1°C° 0.3 mm 3 mps 739 mmHg 92%
    18:00 -1°C° 0.3 mm 3 mps 739 mmHg 93%
    19:00 -2°C° 0.3 mm 3 mps 739 mmHg 94%
    20:00 -2°C° 0.4 mm 3 mps 739 mmHg 94%
    21:00 -2°C° 0.4 mm 3 mps 740 mmHg 94%
    22:00 -3°C° 0.4 mm 4 mps 740 mmHg 94%
    23:00 -5°C° 0.3 mm 4 mps 741 mmHg 93%

    Tomorrow, 23 February, Saturday

    Time Temperature Precipitation Wind Pressure Humidity
    00:00 -7°C° 0.3 mm 4 mps 741 mmHg 91%
    01:00 -8°C° 0.3 mm 4 mps 742 mmHg 90%
    02:00 -10°C° 0 mm 4 mps 743 mmHg 91%
    03:00 -10°C° 0 mm 3 mps 743 mmHg 93%
    04:00 -12°C° 0 mm 3 mps 744 mmHg 95%
    05:00 -13°C° 0 mm 3 mps 744 mmHg 95%
    06:00 -13°C° 0 mm 3 mps 744 mmHg 95%
    07:00 -12°C° 0 mm 2 mps 745 mmHg 96%
    08:00 -12°C° 0 mm 3 mps 745 mmHg 95%
    09:00 -12°C° 0 mm 3 mps 745 mmHg 94%
    10:00 -10°C° 0 mm 3 mps 745 mmHg 94%
    11:00 -9°C° 0.1 mm 3 mps 745 mmHg 92%
    12:00 -9°C° 0.1 mm 3 mps 745 mmHg 90%
    13:00 -8°C° 0.1 mm 3 mps 745 mmHg 89%
    14:00 -8°C° 0.1 mm 3 mps 745 mmHg 89%
    15:00 -8°C° 0.1 mm 3 mps 745 mmHg 89%
    16:00 -7°C° 0.1 mm 2 mps 745 mmHg 89%
    17:00 -8°C° 0 mm 2 mps 745 mmHg 91%
    18:00 -9°C° 0 mm 2 mps 745 mmHg 94%
    19:00 -9°C° 0 mm 2 mps 745 mmHg 96%
    20:00 -9°C° 0 mm 2 mps 745 mmHg 96%
    21:00 -10°C° 0 mm 2 mps 745 mmHg 96%
    22:00 -10°C° 0 mm 2 mps 745 mmHg 96%
    23:00 -12°C° 0.1 mm 3 mps 745 mmHg 96%

    Day after tomorrow, 24 February, Sunday

    Time Temperature Precipitation Wind Pressure Humidity
    00:00 -12°C° 0.1 mm 3 mps 745 mmHg 96%
    01:00 -12°C° 0.1 mm 3 mps 745 mmHg 96%
    02:00 -12°C° 0.1 mm 3 mps 745 mmHg 96%
    03:00 -13°C° 0.1 mm 3 mps 745 mmHg 96%
    04:00 -13°C° 0.1 mm 3 mps 746 mmHg 95%
    05:00 -14°C° 0.1 mm 3 mps 746 mmHg 95%
    06:00 -15°C° 0.1 mm 3 mps 746 mmHg 95%
    07:00 -15°C° 0.1 mm 3 mps 746 mmHg 95%
    08:00 -16°C° 0 mm 3 mps 746 mmHg 95%
    09:00 -16°C° 0 mm 3 mps 746 mmHg 95%
    10:00 -17°C° 0 mm 3 mps 746 mmHg 94%
    11:00 -16°C° 0 mm 3 mps 746 mmHg 93%
    12:00 -17°C° 0 mm 4 mps 746 mmHg 91%
    13:00 -16°C° 0 mm 4 mps 746 mmHg 89%
    14:00 -17°C° 0 mm 4 mps 746 mmHg 89%
    15:00 -17°C° 0 mm 4 mps 745 mmHg 88%
    16:00 -17°C° 0 mm 4 mps 745 mmHg 88%
    17:00 -17°C° 0 mm 4 mps 745 mmHg 90%
    18:00 -18°C° 0 mm 4 mps 745 mmHg 91%
    19:00 -18°C° 0 mm 4 mps 745 mmHg 93%
    20:00 -17°C° 0.1 mm 4 mps 744 mmHg 93%
    21:00 -17°C° 0.1 mm 4 mps 744 mmHg 94%
    22:00 -16°C° 0.1 mm 4 mps 744 mmHg 94%
    23:00 -15°C° 0.1 mm 3 mps 744 mmHg 94%

    25 February, Monday

    Time Temperature Precipitation Wind Pressure Humidity
    00:00 -15°C° 0.1 mm 3 mps 743 mmHg 95%
    01:00 -15°C° 0.1 mm 3 mps 743 mmHg 95%
    02:00 -15°C° 0 mm 3 mps 743 mmHg 95%
    03:00 -16°C° 0 mm 3 mps 743 mmHg 96%
    04:00 -16°C° 0 mm 3 mps 743 mmHg 96%
    05:00 -16°C° 0 mm 3 mps 742 mmHg 96%
    06:00 -16°C° 0 mm 3 mps 742 mmHg 96%
    07:00 -16°C° 0 mm 3 mps 742 mmHg 96%
    08:00 -15°C° 0 mm 3 mps 741 mmHg 95%
    09:00 -15°C° 0 mm 4 mps 741 mmHg 95%
    10:00 -15°C° 0 mm 4 mps 741 mmHg 95%
    11:00 -14°C° 0 mm 4 mps 741 mmHg 94%
    12:00 -11°C° 0 mm 4 mps 740 mmHg 93%
    13:00 -10°C° 0 mm 4 mps 740 mmHg 92%
    14:00 -10°C° 0 mm 4 mps 740 mmHg 92%
    15:00 -10°C° 0 mm 4 mps 739 mmHg 92%
    16:00 -10°C° 0 mm 4 mps 739 mmHg 92%
    17:00 -11°C° 0.1 mm 4 mps 739 mmHg 93%
    18:00 -11°C° 0.1 mm 4 mps 739 mmHg 93%
    19:00 -12°C° 0.1 mm 3 mps 738 mmHg 94%
    20:00 -12°C° 0.1 mm 4 mps 738 mmHg 94%
    21:00 -12°C° 0.1 mm 4 mps 738 mmHg 94%
    22:00 -12°C° 0.1 mm 4 mps 737 mmHg 94%
    23:00 -12°C° 0.1 mm 4 mps 737 mmHg 94%

    26 February, Tuesday

    Time Temperature Precipitation Wind Pressure Humidity
    00:00 -14°C° 0.1 mm 4 mps 737 mmHg 94%
    01:00 -14°C° 0.1 mm 4 mps 736 mmHg 94%
    02:00 -14°C° 0.1 mm 4 mps 736 mmHg 94%
    03:00 -14°C° 0.1 mm 4 mps 736 mmHg 94%
    04:00 -14°C° 0.1 mm 4 mps 736 mmHg 95%
    05:00 -15°C° 0 mm 4 mps 735 mmHg 94%
    06:00 -15°C° 0 mm 4 mps 735 mmHg 94%
    07:00 -14°C° 0 mm 3 mps 735 mmHg 94%
    08:00 -13°C° 0 mm 3 mps 735 mmHg 94%
    09:00 -13°C° 0 mm 3 mps 735 mmHg 94%
    10:00 -12°C° 0 mm 3 mps 734 mmHg 94%
    11:00 -10°C° 0 mm 3 mps 734 mmHg 93%
    12:00 -9°C° 0 mm 3 mps 734 mmHg 92%
    13:00 -7°C° 0 mm 2 mps 734 mmHg 92%
    14:00 -6°C° 0 mm 2 mps 734 mmHg 91%
    15:00 -6°C° 0 mm 2 mps 734 mmHg 91%
    16:00 -6°C° 0 mm 2 mps 733 mmHg 91%
    17:00 -6°C° 0 mm 2 mps 734 mmHg 92%
    18:00 -7°C° 0 mm 2 mps 734 mmHg 94%
    19:00 -7°C° 0 mm 2 mps 734 mmHg 95%
    20:00 -8°C° 0 mm 2 mps 734 mmHg 95%
    21:00 -8°C° 0 mm 2 mps 734 mmHg 95%
    22:00 -9°C° 0 mm 2 mps 734 mmHg 95%
    23:00 -9°C° 0 mm 2 mps 734 mmHg 95%

    27 February, Wednesday

    Time Temperature Precipitation Wind Pressure Humidity
    00:00 -9°C° 0 mm 2 mps 734 mmHg 95%
    01:00 -9°C° 0 mm 2 mps 734 mmHg 95%
    02:00 -9°C° 0 mm 2 mps 734 mmHg 95%
    03:00 -9°C° 0 mm 1 mps 734 mmHg 95%
    04:00 -9°C° 0 mm 1 mps 734 mmHg 95%
    05:00 -9°C° 0 mm 1 mps 734 mmHg 95%
    06:00 -9°C° 0 mm 1 mps 734 mmHg 95%
    07:00 -9°C° 0 mm 1 mps 734 mmHg 95%
    08:00 -8°C° 0.1 mm 1 mps 734 mmHg 95%
    09:00 -7°C° 0.1 mm 1 mps 734 mmHg 94%
    10:00 -6°C° 0.1 mm 1 mps 734 mmHg 93%
    11:00 -6°C° 0.1 mm 1 mps 734 mmHg 92%
    12:00 -6°C° 0.1 mm 2 mps 733 mmHg 91%
    13:00 -5°C° 0.1 mm 2 mps 733 mmHg 90%
    14:00 -5°C° 0.1 mm 2 mps 733 mmHg 90%
    15:00 -5°C° 0.1 mm 2 mps 733 mmHg 91%
    16:00 -5°C° 0.1 mm 2 mps 733 mmHg 91%
    17:00 -6°C° 0.1 mm 2 mps 733 mmHg 93%
    18:00 -7°C° 0.1 mm 2 mps 733 mmHg 95%
    19:00 -8°C° 0.1 mm 2 mps 733 mmHg 96%
    20:00 -7°C° 0 mm 2 mps 733 mmHg 97%
    21:00 -7°C° 0 mm 2 mps 733 mmHg 97%
    22:00 -7°C° 0 mm 2 mps 733 mmHg 97%
    23:00 -7°C° 0.1 mm 2 mps 733 mmHg 97%
    Show more